Terug naar catalogus

STARLINK-11569

ActiefCommunicatieVLEO
NORAD 62910·PAYLOAD·🇺🇸 United States

Gelanceerd Feb 8, 2025 vanaf Cape Canaveral Space Force Station

Loading…

Volgende Passages (komende 24 uur)

TLE

VersSource: CelesTrak SupGP

Epoch: Sep 14, 2026, 20:57 UTC

1 62910C 25027D   26257.87340278 -.00029532  00000+0 -22942-3 0  2576
2 62910  43.0004 287.2099 0001637 258.3890 227.0020 15.70847852    11

Volg STARLINK-11569 in realtime met AllMySat

Download on the App Store